Track NAVSTAR 34 (USA 94) now! NAVSTAR 34 (USA 94) is classified as:
1 22779U 93054A 26215.26423022 .00000087 00000-0 00000+0 0 9999 2 22779 53.2893 216.0780 0052274 254.4571 238.9599 1.89129787236919